Regional Weather Roundup
Issued by NWS

Home | Current Version | Previous Version | Text Only | Print | Product List | Glossary On
Versions: 1 2 3 4 5 6 7 8 9 10 11 12 13 14 15 16 17 18 19 20 21 22 23 24 25 26 27
000
ASUS45 KBOU 212207
RWRCO

WEATHER ROUNDUP FOR COLORADO
NATIONAL WEATHER SERVICE DENVER/BOULDER CO
400 PM MDT WED JUN 21 2017

NOTE: "FAIR" INDICATES FEW OR NO CLOUDS BELOW 12000 FEET WITH NO
SIGNIFICANT WEATHER AND/OR OBSTRUCTIONS TO VISIBILITY.

COZ001>005-013-030-031-212300-
...NORTHWEST COLORADO...

CITY           SKY/WX    TMP DP  RH WIND       PRES   REMARKS
CRAIG          PTSUNNY   79  35  20 NW39G53   30.13R
HAYDEN         FAIR      81  36  19 NW26G41   30.14R
MEEKER         FAIR      89  35  14 N21G28    30.09S
RABBIT EARS PA FAIR      68  32  26 W7G21     30.47F
STEAMBOAT SPGS FAIR      79  40  24 N14G21    30.15R
WALDEN         FAIR      66  37  34 SW22G29   30.30R
$$

COZ006>008-011-212300-
...WEST CENTRAL VALLEYS...

CITY           SKY/WX    TMP DP  RH WIND       PRES   REMARKS
GRAND JUNCTION FAIR     101  29   8 N17G29    29.93F
MONTROSE       LGT RAIN  94  31  10 VRB3G21   30.04F
EAGLE          SUNNY     90  34  13 SW26G35   30.10
RIFLE          FAIR      93  31  11 SW30G37   30.02R
DELTA          FAIR     102  26   7 W16       29.96F
NUCLA          FAIR      97  23   7 W9G21     30.07F
$$

COZ017>023-064>068-212300-
...SOUTHWEST COLORADO...

CITY           SKY/WX    TMP DP  RH WIND       PRES   REMARKS
DURANGO        FAIR      88  29  12 N23G32    30.13R
CORTEZ         FAIR      96  30   9 NE17G32   30.06F
PAGOSA SPRINGS FAIR      86  23  10 CALM      30.24F
TELLURIDE      PTSUNNY   76  31  19 W8G29     30.38S
WOLF CREEK PAS FAIR      59  34  38 SE8G18    30.66F
$$

COZ009-010-012-014-032>034-037-058>063-212300-
...CENTRAL COLORADO...

CITY           SKY/WX    TMP DP  RH WIND       PRES   REMARKS
ASPEN          FAIR      85  25  11 N13G21    30.19F
BUENA VISTA    FAIR      85  21   9 W9        30.22F
COPPER MTN     LGT RAIN  59  23  25 W12G40    30.62S
BERTHOUD PASS  PTSUNNY   55  43  62 W22       30.63S THUNDER
COTTONWOOD PAS FAIR      81   9   6 CALM      30.40F
GUNNISON       FAIR      78  36  21 N16G26    30.24R
KREMMLING      NOT AVBL
LEADVILLE      FAIR      74  20  13 N12G30    30.39F
MONARCH PASS   PTSUNNY   70  23  17 W24G41    30.70F
SALIDA         FAIR      90  22   8 N16G31    30.23F
SUNLIGHT       FAIR      68  32  26 SW8       30.53S
WILKERSON PASS PTSUNNY   70  19  14 N8G25     30.55F
$$

COZ069>075-212300-
...SAN LUIS VALLEY/SANGRE DE CRISTO MOUNTAINS...

CITY           SKY/WX    TMP DP  RH WIND       PRES   REMARKS
ALAMOSA        FAIR      87  36  16 SW16G22   30.20F
DEL NORTE      FAIR      87  28  12 NW13G25   30.24F
LA VETA PASS   FAIR      75  34  22 MISG      30.55R
SAGUACHE       FAIR      84  30  14 NW9G32    30.23F
$$

COZ035-036-038>040-212300-
...NORTHERN COLORADO FRONT RANGE...

CITY           SKY/WX    TMP DP  RH WIND       PRES   REMARKS
DENVER INTL AP PTSUNNY   96  33  11 NW28G40   29.96F
DMNS CITY PARK   N/A     95  32  10 W13       29.94F
AURORA         PTSUNNY   95  33  11 NW13G18   29.98F
FRONT RANGE AP FAIR      95  32  11 NW13      29.98F
ERIE MUNI ARPT FAIR      97  30   9 CALM      29.92F
BOULDER MUN AP FAIR      97  37  12 E5        29.94F
CENTENNIAL     FAIR      91  31  11 VRB3      30.00F
BROOMFIELD     FAIR      97  36  11 N8        29.98F
FORT COLLINS   FAIR      95  37  13 NE13G18   29.92F
LONGMONT       FAIR      95  37  13 E8        29.94F
$$

COZ041-046-047-076>085-087-088-212300-
...PIKES PEAK/PALMER DIVIDE AND SOUTHERN FOOTHILLS...

CITY           SKY/WX    TMP DP  RH WIND       PRES   REMARKS
COLO. SPRINGS  FAIR      87  42  20 SE9       30.07F
A. F. ACADEMY  MOSUNNY   88  38  16 SW13      30.08F
SCHRIEVER AFB  FAIR      84  34  16 CALM      30.11R
CHEYENNE MTN   RAIN      74  52  44 SW8       30.10F
ELLICOTT       FAIR     N/A N/A N/A S9        30.06F
FALCON           N/A     82  31  15 S14G22    30.14F
FORT CARSON    PTSUNNY   88  41  19 SE21      30.05R
LIMON          FAIR      97  30   9 N8G18     29.98F
MONUMENT HILL  FAIR      88  32  13 NW7G17    30.15F
CANON CITY     SUNNY     97  34  11 E16G23    29.99S
WALSENBURG     FAIR      86  43  22 NE14      30.06F
TRINIDAD       FAIR      98  32  10 NE10      29.99F
$$

COZ042>045-048>051-090-091-212300-
...NORTHEAST COLORADO...

CITY           SKY/WX    TMP DP  RH WIND       PRES   REMARKS
GREELEY ARPT   FAIR      98  36  11 N16       29.90F
AKRON          FAIR      98  29   8 N13       29.91F
BURLINGTON     FAIR      99  43  14 NW16G24   29.86F
WRAY           FAIR     104  32   8 NW10G20   29.81F
YUMA           FAIR      99  37  12 NW16      29.85F
STERLING       FAIR     100  34  10 N12G17    29.84F
HOLYOKE        NOT AVBL
FORT MORGAN    FAIR      97  31   9 NW12G23   29.90F
$$

COZ086-089-092>099-212300-
...SOUTHEAST COLORADO...

CITY           SKY/WX    TMP DP  RH WIND       PRES   REMARKS
PUEBLO         FAIR      89  44  20 NE21G30   29.97S
LA JUNTA       FAIR      99  44  15 N14       29.88S
LAMAR          FAIR     100  48  17 E13       29.81F
SPRINGFIELD      N/A     77  61  57 E26G37    29.92R
$$




USA.gov is the U.S. government's official web portal to all federal, state and local government web resources and services.